Regional Weather Roundup
Issued by NWS Raleigh/Durham, NC

Home | Current Version | Previous Version | Text Only | Print | Product List | Glossary On
Versions: 1 2 3 4 5 6 7 8 9 10 11 12 13 14 15 16 17 18 19 20 21 22 23 24 25 26 27 28 29 30 31 32 33 34 35 36 37 38 39 40 41 42 43 44 45 46 47 48 49 50
000
ASUS42 KRAH 222110
RWRRAH
NORTH CAROLINA WEATHER ROUNDUP
NATIONAL WEATHER SERVICE RALEIGH NC
400 PM EST WED FEB 22 2017

NOTE: "FAIR" INDICATES FEW OR NO CLOUDS BELOW 12,000 FEET WITH NO
SIGNIFICANT WEATHER AND/OR OBSTRUCTIONS TO VISIBILITY.

NCZ001-053-055-056-065-067-222200-
WESTERN NORTH CAROLINA

CITY           SKY/WX    TMP DP  RH WIND       PRES   REMARKS
ASHEVILLE      CLOUDY    56  51  84 VRB3      29.94F VSB 1
JEFFERSON      RAIN      51  51  99 CALM      29.96S
MORGANTON      CLOUDY    58  55  89 CALM      30.00S
HICKORY        CLOUDY    58  54  86 VRB6      29.94F
RUTHERFORDTON  CLOUDY    60  55  82 CALM      29.95S
MOUNT AIRY     RAIN      57  55  92 CALM      29.97S
BOONE          CLOUDY    53  52  95 S5        29.96F
$$

NCZ021-022-025-041-071-084-088-222200-
CENTRAL NORTH CAROLINA

CITY           SKY/WX    TMP DP  RH WIND       PRES   REMARKS
CHARLOTTE      CLOUDY    67  53  61 N5        29.92F
GREENSBORO     CLOUDY    59  56  89 N3        29.94S
WINSTON-SALEM  LGT RAIN  58  53  84 CALM      29.96F
RALEIGH-DURHAM CLOUDY    70  49  47 S3        29.93F
FORT BRAGG     CLOUDY    70  52  52 CALM      29.90S
FAYETTEVILLE   CLOUDY    73  53  49 SE6       29.90F
BURLINGTON     CLOUDY    65  53  65 NW7       29.93S
LAURINBURG     CLOUDY    73  51  46 S9        29.90F
$$

NCZ011-015-027-028-043-044-047-080-103-222200-
NORTHEASTERN NORTH CAROLINA

CITY           SKY/WX    TMP DP  RH WIND       PRES   REMARKS
ROCKY MT-WILSO CLOUDY    70  50  49 CALM      29.93F
GREENVILLE     CLOUDY    72  46  40 CALM      29.95S
WASHINGTON     MOSUNNY   70  51  50 SE8       29.94S
ELIZABETH CITY CLOUDY    64  49  57 SE10      29.96F
MANTEO         MOSUNNY   65  51  59 S9        29.97S
CAPE HATTERAS  MOSUNNY   70  54  56 S7        29.96F
$$

NCZ078-087-090-091-093-098-101-222200-
SOUTHEASTERN NORTH CAROLINA

CITY           SKY/WX    TMP DP  RH WIND       PRES   REMARKS
LUMBERTON      LGT RAIN  75  49  39 S7        29.89F
GOLDSBORO      CLOUDY    72  51  48 SE8       29.91S
KINSTON        CLOUDY    72  50  46 S7        29.94S
KENANSVILLE    NOT AVBL
NEW BERN       CLOUDY    70  52  52 S10       29.95S
CHERRY POINT   NOT AVBL
BEAUFORT       CLOUDY    68  53  58 SW7       29.95F
JACKSONVILLE   MOSUNNY   69  55  60 SE9       29.94F
WILMINGTON     MOSUNNY   69  54  58 SE12      29.93S
$$




USA.gov is the U.S. government's official web portal to all federal, state and local government web resources and services.